Regional Weather Roundup
Issued by NWS

Home | Current Version | Previous Version | Graphics & Text | Print | Product List | Glossary On
Versions: 1 2 3 4 5 6 7 8 9 10 11 12 13 14 15 16 17 18 19 20 21 22 23 24 25 26 27 28 29 30 31 32 33 34 35 36 37 38 39 40 41 42 43 44 45 46 47 48 49 50
000
ASUS45 KBOU 180507
RWRCO

WEATHER ROUNDUP FOR COLORADO
NATIONAL WEATHER SERVICE DENVER/BOULDER CO
1000 PM MST WED DEC 17 2014

NOTE: "FAIR" INDICATES FEW OR NO CLOUDS BELOW 12000 FEET WITH NO
SIGNIFICANT WEATHER AND/OR OBSTRUCTIONS TO VISIBILITY.

COZ001>005-013-030-031-180600-
...NORTHWEST COLORADO...

CITY           SKY/WX    TMP DP  RH WIND       PRES   REMARKS
CRAIG          CLOUDY    26  25  96 S7        30.04R FOG     WCI  18
HAYDEN         CLOUDY    27  25  93 CALM      30.02R
MEEKER         CLOUDY    27  25  92 CALM      30.03R
MOUNT WERNER   NOT AVBL
STEAMBOAT SPGS CLOUDY    25  24  98 CALM      30.02R
WALDEN         MOCLDY    18  14  86 SE5       29.99R WCI  11
$$

COZ006>008-011-180600-
...WEST CENTRAL VALLEYS...

CITY           SKY/WX    TMP DP  RH WIND       PRES   REMARKS
GRAND JUNCTION CLOUDY    35  35 100 NW3       30.04R
MONTROSE       LGT SNOW  32  32 100 CALM      30.05R FOG
EAGLE          FLURRIES  27  27 100 CALM      30.04R
RIFLE          CLOUDY    34  32  92 CALM      30.03R FOG
DELTA          CLOUDY    37  36  94 CALM      30.04R
NUCLA          LGT SNOW  34  32  93 CALM      30.08R
$$

COZ017>023-064>068-180600-
...SOUTHWEST COLORADO...

CITY           SKY/WX    TMP DP  RH WIND       PRES   REMARKS
DURANGO        CLOUDY    31  29  92 SW10      30.04R WCI  22
CORTEZ         CLOUDY    33  32  96 CALM      30.07R
PAGOSA SPRINGS FLURRIES  31  31 100 CALM      30.04R
TELLURIDE      LGT SNOW  26  26  99 W5        30.03R WCI  20
WOLF CREEK PAS SNOW      14  14 100 MISG      30.01R VSB 1/2
$$

COZ009-010-012-014-032>034-037-058>063-180600-
...CENTRAL COLORADO...

CITY           SKY/WX    TMP DP  RH WIND       PRES   REMARKS
ASPEN          LGT SNOW  27  25  92 CALM      29.99R FOG
BUENA VISTA    CLOUDY    27  21  76 CALM      29.98R
COPPER MTN     MOCLDY    18  10  73 W9        29.98R WCI   6
BERTHOUD PASS  CLOUDY    12   7  79 MISG      29.97S
COTTONWOOD PAS MOCLDY    28  23  80 SE5       29.98R WCI  23
GUNNISON       CLOUDY    25  19  80 CALM      30.04R
KREMMLING      LGT SNOW  18  14  86 CALM      30.03R
LEADVILLE      MOCLDY    15  11  83 NE7       29.97R WCI   5
SALIDA         MOCLDY    30  23  74 CALM      30.06R
SUNLIGHT       CLOUDY   N/A N/A N/A CALM      30.02R
WILKERSON PASS CLOUDY    19  16  86 NW5       30.00R WCI  13
$$

COZ069>075-180600-
...SAN LUIS VALLEY/SANGRE DE CRISTO MOUNTAINS...

CITY           SKY/WX    TMP DP  RH WIND       PRES   REMARKS
ALAMOSA        LGT SNOW  23  21  92 SE3       30.02R FOG
LA VETA PASS   NOT AVBL
SAGUACHE       MIX PCPN  27  27 100 CALM      30.03R
$$

COZ035-036-038>040-180600-
...NORTHERN COLORADO FRONT RANGE...

CITY           SKY/WX    TMP DP  RH WIND       PRES   REMARKS
DENVER INTL AP CLOUDY    30  26  85 SE6       29.97R WCI  24
DMNS CITY PARK   N/A     31  26  82 W1        29.98R
AURORA         CLOUDY    30  28  93 S6        29.98R WCI  24
FRONT RANGE AP CLOUDY    32  30  93 CALM      29.98R
ERIE MUNI ARPT   N/A     25  23  91 SW3       29.98S
BOULDER MUN AP PTCLDY    32  27  80 CALM      29.97R
CENTENNIAL     CLOUDY    32  26  78 CALM      29.97R
BROOMFIELD     CLOUDY    32  27  80 MISG      29.98R
FORT COLLINS   PTCLDY    27  19  74 E6        30.00R WCI  20
LONGMONT       PTCLDY    25  23  91 CALM      30.00R
$$

COZ041-046-047-076>085-087-088-180600-
...PIKES PEAK/PALMER DIVIDE AND SOUTHERN FOOTHILLS...

CITY           SKY/WX    TMP DP  RH WIND       PRES   REMARKS
COLO. SPRINGS  LGT SNOW  27  24  89 CALM      29.99R FOG
A. F. ACADEMY  LGT SNOW  32  32 100 N1        29.98R FOG
ELLICOTT       NOT AVBL
FALCON         CLOUDY    30  29  98 CALM      29.98R
FORT CARSON    FLURRIES  26  24  91 S1        29.99R
LIMON          CLOUDY    20  19  96 E3        29.99R
MONUMENT HILL  LGT SNOW  30  28  93 CALM      29.97R
TRINIDAD       PTCLDY    28  22  78 W12       29.98R WCI  18
$$

COZ042>045-048>051-090-091-180600-
...NORTHEAST COLORADO...

CITY           SKY/WX    TMP DP  RH WIND       PRES   REMARKS
GREELEY ARPT   MOCLDY    25  16  68 CALM      29.99R
AKRON          FOG       22  21  96 S8        29.99S VSB 1/2 WCI  12
BURLINGTON     LGT SNOW  25  22  88 CALM      30.03R FOG
WRAY           CLOUDY   N/A N/A N/A S5        30.05S FOG
STERLING       CLOUDY    27  27 100 SW7       30.02S FOG     WCI  19
HOLYOKE        NOT AVBL
FORT MORGAN    CLOUDY    20  18  91 CALM      30.00S
$$

COZ086-089-092>099-180600-
...SOUTHEAST COLORADO...

CITY           SKY/WX    TMP DP  RH WIND       PRES   REMARKS
PUEBLO         LGT SNOW  27  24  89 CALM      30.02  FOG
LA JUNTA       LGT SNOW  27  24  89 CALM      30.03R FOG
LAMAR          CLOUDY    29  28  96 NE7       30.03R FOG     WCI  22
SPRINGFIELD      N/A     25  24  96 N10       29.99S WCI  15
$$


USA.gov is the U.S. government's official web portal to all federal, state and local government web resources and services.